TimeCDT,TemperatureF,Dew PointF,Humidity,Sea Level PressureIn,VisibilityMPH,Wind Direction,Wind SpeedMPH,Gust SpeedMPH,PrecipitationIn,Events,Conditions,WindDirDegrees,DateUTC
12:53 AM,51.1,36.0,56,29.92,10.0,South,13.8,-,N/A,,Clear,190,2012-10-09 05:53:00
1:53 AM,50.0,36.0,59,29.92,10.0,South,12.7,-,N/A,,Clear,190,2012-10-09 06:53:00
3:53 AM,46.9,35.1,63,29.91,10.0,SSW,10.4,-,N/A,,Clear,200,2012-10-09 08:53:00
4:53 AM,46.0,36.0,68,29.89,10.0,South,8.1,-,N/A,,Clear,190,2012-10-09 09:53:00
5:53 AM,46.9,36.0,66,29.89,10.0,South,10.4,-,N/A,,Clear,190,2012-10-09 10:53:00
6:53 AM,46.9,36.0,66,29.89,10.0,South,11.5,-,N/A,,Clear,190,2012-10-09 11:53:00
7:53 AM,46.9,37.0,68,29.89,10.0,South,10.4,-,N/A,,Clear,190,2012-10-09 12:53:00
8:53 AM,51.1,39.0,63,29.89,10.0,SSW,13.8,23.0,N/A,,Clear,200,2012-10-09 13:53:00
9:53 AM,55.0,41.0,59,29.89,10.0,SSW,13.8,25.3,N/A,,Clear,200,2012-10-09 14:53:00
10:53 AM,59.0,43.0,55,29.92,10.0,SW,6.9,-,N/A,,Clear,230,2012-10-09 15:53:00
11:53 AM,63.0,45.0,52,29.91,10.0,WSW,12.7,24.2,N/A,,Clear,240,2012-10-09 16:53:00
12:53 PM,64.9,45.0,48,29.89,10.0,SSW,5.8,-,N/A,,Clear,200,2012-10-09 17:53:00
1:53 PM,64.9,46.9,52,29.89,10.0,NW,9.2,-,N/A,,Overcast,320,2012-10-09 18:53:00
2:53 PM,62.1,43.0,50,29.90,10.0,NNW,11.5,-,N/A,,Overcast,340,2012-10-09 19:53:00
3:53 PM,60.1,39.9,47,29.93,10.0,North,16.1,21.9,N/A,,Overcast,360,2012-10-09 20:53:00
4:53 PM,57.9,41.0,53,29.96,10.0,North,12.7,-,N/A,,Overcast,360,2012-10-09 21:53:00
5:53 PM,57.9,42.1,56,29.99,10.0,North,16.1,-,N/A,,Overcast,360,2012-10-09 22:53:00
6:53 PM,55.9,39.9,55,30.01,10.0,North,9.2,-,N/A,,Mostly Cloudy,360,2012-10-09 23:53:00
7:53 PM,53.1,35.1,50,30.05,10.0,North,9.2,-,N/A,,Clear,360,2012-10-10 00:53:00
8:53 PM,52.0,30.9,45,30.08,10.0,North,11.5,-,N/A,,Clear,360,2012-10-10 01:53:00
9:53 PM,48.0,27.0,44,30.12,10.0,North,6.9,-,N/A,,Clear,360,2012-10-10 02:53:00
10:53 PM,44.1,27.0,51,30.14,10.0,Calm,Calm,-,N/A,,Clear,0,2012-10-10 03:53:00
11:53 PM,39.0,28.0,65,30.15,10.0,Calm,Calm,-,N/A,,Clear,0,2012-10-10 04:53:00